Regional Weather Roundup
Issued by NWS

Home | Current Version | Previous Version | Text Only | Print | Product List | Glossary Off
Versions: 1 2 3 4 5 6 7 8 9 10 11 12 13 14 15 16 17 18 19 20 21 22 23 24 25 26 27 28 29 30 31 32 33 34 35 36 37 38 39 40 41 42 43 44 45 46 47 48 49 50

000
ASUS43 KIND 200359
RWRIN

WEATHER ROUNDUP FOR INDIANA
NATIONAL WEATHER SERVICE INDIANAPOLIS IN
1200 AM EDT FRI APR 20 2018

NOTE: "FAIR" INDICATES FEW OR NO CLOUDS BELOW 12,000 FEET WITH NO
SIGNIFICANT WEATHER AND/OR OBSTRUCTIONS TO VISIBILITY.

* - STATION DOES NOT REPORT WEATHER SUCH AS PRECIPITATION OR FOG.

+ - STATION NOT QUALITY CONTROLLED BY THE NATIONAL WEATHER SERVICE.
    USE DATA WITH CAUTION...ESPECIALLY DEWPOINT AND RELATIVE
    HUMIDITY OBSERVATIONS.

INZ001>003-010>013-019-020-200500-
NORTHWEST INDIANA

CITY           SKY/WX    TMP DP  RH WIND       PRES   REMARKS
KNOX *+        FAIR      32  21  64 NW3       30.41R
MONTICELLO +   FAIR      32  19  60 NW6       30.40S WCI  26

$$

LMZ046-743>745-200500-
SOUTHERN LAKE MICHIGAN

STATION/POSITION TIME  TEMP    WIND        PRES    WAVE
                       AIR SEA DIR/SP/G            HT
                 (UTC) (F)     (DEG/KT/KT) (MB)    (FT)
BURNS HARBOR     0340   40     330/  4/  8 1030.1S
MICHIGAN CITY    0330   40     310/  9/ 10   N/A

$$

INZ004-005-014>016-021>024-200500-
NORTH CENTRAL INDIANA

CITY           SKY/WX    TMP DP  RH WIND       PRES   REMARKS
GOSHEN         FAIR      35  21  56 NW8       30.38R WCI  29
PERU/GRISSOM   FAIR      36  18  48 N9        30.38R WCI  29
ROCHESTER +    FAIR      36  21  55 NW5       30.40R WCI  32
SOUTH BEND     FAIR      32  23  69 N5        30.40S WCI  27
WARSAW +       FAIR      34  23  64 N7        30.38R WCI  28

$$

INZ006>009-017-018-025>027-200500-
NORTHEAST INDIANA

CITY           SKY/WX    TMP DP  RH WIND       PRES   REMARKS
ANGOLA *+      FAIR      36  25  64 NW6       30.35R WCI  31
FORT WAYNE     FAIR      37  25  61 NW10      30.37R WCI  30
KENDALLVILLE + FAIR      35  20  55 NW7       30.37R WCI  29

$$

INZ028-029-035-036-043>045-051>053-200500-
WEST CENTRAL INDIANA

CITY           SKY/WX    TMP DP  RH WIND       PRES   REMARKS
GREENCASTLE +  FAIR      37  16  41 N5        30.41S WCI  34
LAFAYETTE      FAIR      36  19  50 N7        30.41S WCI  30
TERRE HAUTE    FAIR      43  19  38 N7        30.41R

$$

INZ030>032-037>040-046>048-054>057-064-065-200500-
CENTRAL INDIANA

CITY           SKY/WX    TMP DP  RH WIND       PRES   REMARKS
INDIANAPOLIS   FAIR      39  17  41 N12       30.39R WCI  32
-EAGLE CREEK   FAIR      40  19  43 NW10      30.39R WCI  33
KOKOMO +       FAIR      36  21  54 N13       30.39R WCI  27
SHELBYVILLE    FAIR      40  22  48 N9        30.37R WCI  34
ZIONSVILLE +   FAIR      34  21  59 NW6       30.40R WCI  29

$$

INZ033-034-041-042-049-050-058-059-200500-
EAST CENTRAL INDIANA

CITY           SKY/WX    TMP DP  RH WIND       PRES   REMARKS
MUNCIE         FAIR      38  25  59 N9        30.36R WCI  31
RICHMOND +     FAIR      37  28  70 N10G16    30.33R WCI  30

$$

INZ060-061-067>069-081>083-085>088-200500-
SOUTHWEST INDIANA

CITY           SKY/WX    TMP DP  RH WIND       PRES   REMARKS
EVANSVILLE     FAIR      45  34  65 N5        30.38F
HUNTINGBURG +  FAIR      46  31  55 N5        30.38S

$$

INZ062-063-066-070>080-084-089>092-200500-
SOUTH CENTRAL AND SOUTHEAST INDIANA

CITY           SKY/WX    TMP DP  RH WIND       PRES   REMARKS
BLOOMINGTON    FAIR      41  23  48 N9        30.38R
SEYMOUR +      FAIR      45  27  49 NW8       30.37R

$$





USA.gov is the U.S. government's official web portal to all federal, state and local government web resources and services.